Zurück zum Katalog

COSMOS 252 DEB *

AktivLEO
NORAD 5322·DEBRIS·🇷🇺 Russia

Gestartet Nov 1, 1968 von Baikonur Cosmodrome

Loading…

Nächste Überflüge (nächste 24 Stunden)

TLE

AktuellSource: Space-Track

Epoche: Sep 14, 2026, 09:32 UTC

1 05322U 68097CJ  26257.39764567  .00001834  00000-0  12924-2 0  9997
2 05322  61.3210 198.6287 0693764 346.8164  11.5474 13.21495830725625

Verfolge COSMOS 252 DEB * in Echtzeit mit AllMySat

Download on the App Store